AO-Echo - Orbit

View from above orbital plane
View from above orbital plane
View from above satellite
View from above satellite

Ground track
Ground track

The orbit data is extracted from the following two-line orbital elements,

1 28375U 04025K   13168.46828354  .00000088  00000-0  39246-4 0  5849
2 28375 098.2011 123.9155 0083552 016.2194 095.9095 14.41127465471374
Epoch (UTC): 17 June 2013 11:14:19
Eccentricity: 0.0083552
inclination: 98.2011°
perigee height: 695 km
apogee height: 814 km
right ascension of ascending node: 123.9155°
argument of perigee: 16.2194°
revolutions per day: 14.41127465
mean anomaly at epoch: 95.9095°
orbit number at epoch: 47137

The dashed part of the orbit path shows where the satellite is in the earth's shadow,  

Developed and maintained by Chris Peat, Heavens-Above GmbH. Please read the updated FAQ before sending e-mail. Imprint. DLR